[[{"header":{"parameterUnit":"m.s-1","parameterCategory":1,"la1":30.2992,"la2":30.254,"lo1":-89.0895,"lo2":-89.0443,"dy":0.0025,"dx":0.0025,"nx":19,"ny":19,"refTime":"2026-04-08T09:00:00:Z","depth":0,"parameterNumber":2,"parameterNumberName":"U-component_of_WINDS"},"data":[0,0,0,-5.6326,-5.6325,-5.6275,-5.6274,-5.6248,-5.6248,0,0,0,0,0,0,0,0,0,0,0,-5.6363,-5.6364,-5.6326,-5.6325,-5.6275,-5.6274,-5.6248,-5.6248,0,0,0,0,0,0,0,0,0,0,0,-5.6363,-5.6364,-5.6364,-5.6325,-5.6275,-5.6274,-5.6248,-5.6272,0,0,0,0,0,0,0,0,0,0,-5.6315,-5.6371,-5.6363,-5.6364,-5.6325,-5.6275,-5.6274,-5.6273,-5.6271,-5.6287,0,-5.6307,0,-5.6277,-5.6248,-5.6248,0,0,0,-5.6308,-5.6373,-5.6339,-5.6364,-5.6325,-5.6275,-5.6293,-5.6271,-5.6269,-5.6284,-5.6306,-5.6304,-5.6277,-5.6248,-5.6249,-5.64,-5.6402,0,0,-5.6311,-5.6366,-5.6341,-5.6339,-5.6349,-5.6294,-5.6291,-5.6269,-5.6296,-5.6306,-5.6303,-5.6276,-5.6249,-5.6249,-5.6399,-5.6401,0,0,0,-5.633,-5.6369,-5.6334,-5.6341,-5.6329,-5.6293,-5.629,-5.6297,-5.6282,-5.6302,-5.6276,-5.6249,-5.6249,-5.6397,-5.6399,-5.6529,0,0,0,-5.6331,-5.638,-5.6337,-5.637,-5.633,-5.6312,-5.6319,-5.6283,-5.6279,-5.6276,-5.6249,-5.6249,-5.6395,-5.6398,-5.6521,-5.658,0,0,0,-5.6359,-5.6383,-5.6383,-5.6373,-5.6353,-5.6311,-5.6294,-5.6281,-5.6264,-5.6248,-5.6249,-5.6394,-5.6398,-5.6515,-5.6569,-5.6638,0,0,0,-5.6404,-5.6496,-5.6386,-5.648,-5.6354,-5.6392,-5.6293,-5.6318,-5.632,-5.6249,-5.6395,-5.6399,-5.6513,-5.6562,-5.6632,-5.6707,-5.6743,0,0,-5.6551,-5.6516,-5.6567,-5.6467,-5.6539,-5.6395,-5.6486,-5.6434,-5.6382,-5.6397,-5.64,-5.6524,-5.6568,-5.6637,-5.6925,-5.6954,0,0,0,-5.6632,-5.667,-5.6677,-5.6683,-5.6647,-5.6623,-5.6553,-5.6535,-5.6545,-5.6401,-5.6565,-5.659,-5.6628,-5.6661,-5.6686,-5.6716,-5.6417,-5.6416,-5.6416,-5.6919,-5.685,-5.693,-5.6856,-5.6863,-5.6792,-5.6792,-5.6756,-5.668,-5.6721,-5.6725,-5.6909,-5.695,-5.6968,-5.7,-5.6758,-5.6759,-5.6759,-5.676,-5.713,-5.7173,-5.7076,-5.712,-5.7047,-5.7083,-5.702,-5.6967,-5.6991,-5.6898,-5.6928,-5.6835,-5.7002,-5.7027,-5.6769,-5.6767,-5.6766,-5.6765,-5.6764,-5.7311,-5.7319,-5.7297,-5.7301,-5.7313,-5.7234,-5.7263,-5.7195,-5.713,-5.716,-5.7159,-5.7156,-5.7147,-5.7164,-5.7165,-5.7165,-5.7166,-5.7166,-5.7167,-5.7507,-5.7478,-5.7511,-5.7485,-5.7482,-5.7469,-5.7403,-5.7398,-5.7375,-5.7323,-5.7323,-5.7247,-5.7031,-5.6979,-5.7176,-5.7175,-5.7173,-5.7173,-5.7172,-5.7748,-5.7684,-5.7734,-5.7732,-5.7698,-5.7716,-5.763,-5.7627,-5.7613,-5.7631,-5.755,-5.7401,-5.7359,-5.7339,-5.7296,-5.7563,-5.7563,-5.7563,-5.7563,-5.7901,-5.7875,-5.7913,-5.7915,-5.7908,-5.7836,-5.7899,-5.7851,-5.7789,-5.7778,-5.7729,-5.7666,-5.7648,-5.7617,-5.7591,-5.7549,-5.7875,-5.7875,-5.7875,-5.8047,-5.8017,-5.8083,-5.8023,-5.7993,-5.797,-5.8028,-5.8035,-5.7952,-5.7887,-5.7767,-5.7754,-5.7651,-5.7621,-5.7552,-5.7513,-5.7435,0,0]},{"header":{"parameterUnit":"m.s-1","parameterCategory":1,"la1":30.2992,"la2":30.254,"lo1":-89.0895,"lo2":-89.0443,"dy":0.0025,"dx":0.0025,"nx":19,"ny":19,"refTime":"2026-04-08T09:00:00:Z","depth":0,"parameterNumber":3,"parameterNumberName":"V-component_of_WINDS"},"data":[0,0,0,0.3459,0.3457,0.3367,0.3367,0.3237,0.3236,0,0,0,0,0,0,0,0,0,0,0,0.348,0.3479,0.346,0.3457,0.3367,0.3367,0.3237,0.3236,0,0,0,0,0,0,0,0,0,0,0,0.348,0.3479,0.3478,0.3457,0.3367,0.3367,0.3238,0.331,0,0,0,0,0,0,0,0,0,0,0.34,0.3413,0.3479,0.3478,0.3456,0.3367,0.3367,0.3314,0.3306,0.3273,0,0.3244,0,0.3238,0.3227,0.3226,0,0,0,0.3461,0.342,0.3402,0.3478,0.3455,0.3368,0.3409,0.3309,0.33,0.3262,0.3242,0.3238,0.3236,0.3226,0.3225,0.303,0.3029,0,0,0.3466,0.3459,0.3408,0.3396,0.3412,0.3412,0.3406,0.3304,0.3281,0.3242,0.3235,0.3234,0.3225,0.3224,0.3031,0.3029,0,0,0,0.3478,0.3463,0.3447,0.3401,0.3386,0.3409,0.3402,0.3286,0.3282,0.3234,0.3232,0.3224,0.3222,0.3032,0.303,0.2971,0,0,0,0.3481,0.347,0.3449,0.3444,0.3387,0.3335,0.3386,0.3289,0.3277,0.3233,0.3224,0.3221,0.3033,0.3031,0.2975,0.2942,0,0,0,0.3488,0.347,0.3456,0.3444,0.3406,0.3337,0.3327,0.3286,0.3276,0.3226,0.3221,0.3034,0.3031,0.2979,0.2949,0.2889,0,0,0,0.3492,0.3402,0.3455,0.3354,0.3406,0.3303,0.3328,0.325,0.32,0.3223,0.3033,0.303,0.298,0.2953,0.2893,0.2836,0.2813,0,0,0.3375,0.3388,0.3329,0.3373,0.3259,0.3317,0.3192,0.3151,0.315,0.3069,0.3065,0.2974,0.2949,0.289,0.2686,0.2668,0,0,0,0.329,0.3247,0.3218,0.3172,0.3141,0.3111,0.309,0.3075,0.3007,0.3109,0.2937,0.2923,0.2888,0.2861,0.2845,0.2815,0.3018,0.3019,0.3019,0.3111,0.3119,0.3022,0.302,0.2974,0.2956,0.2919,0.2895,0.2913,0.2873,0.2848,0.2724,0.2692,0.268,0.2649,0.282,0.282,0.282,0.282,0.2939,0.2879,0.291,0.2827,0.2835,0.2764,0.2742,0.2758,0.2692,0.2743,0.2713,0.2766,0.266,0.2633,0.2815,0.2816,0.2817,0.2817,0.2817,0.2821,0.2794,0.278,0.2716,0.2665,0.2665,0.2601,0.261,0.2618,0.2588,0.2562,0.2563,0.2564,0.2576,0.2575,0.2575,0.2575,0.2574,0.2574,0.2704,0.2691,0.2637,0.2599,0.2571,0.2536,0.2518,0.249,0.2461,0.2472,0.2472,0.2493,0.265,0.2687,0.2567,0.2569,0.2569,0.257,0.257,0.2522,0.2566,0.2483,0.2455,0.2412,0.236,0.2375,0.2317,0.2296,0.2264,0.2293,0.2408,0.242,0.2433,0.2464,0.2293,0.2293,0.2293,0.2293,0.2421,0.2431,0.2349,0.2305,0.2262,0.2268,0.2172,0.2157,0.2148,0.2135,0.2162,0.2205,0.2217,0.2222,0.2239,0.2268,0.2052,0.2052,0.2051,0.2309,0.2315,0.2232,0.2228,0.2195,0.2166,0.2076,0.2021,0.202,0.2042,0.2124,0.2134,0.2204,0.2227,0.2247,0.2273,0.2327,0,0]}]]